[[{"header":{"parameterUnit":"m.s-1","parameterCategory":2,"la1":30.2991,"la2":30.254,"lo1":-89.0895,"lo2":-89.0444,"dy":0.0017,"dx":0.0017,"nx":28,"ny":28,"refTime":"2025-06-06T21:00:00:Z","depth":"0","parameterNumber":2,"parameterNumberName":"U-component_of_CURRENTS"},"data":[0,0,0,0,0,0,0,0,0,0,0,0,0,0,0,0,0,0,0,0,0,0,0,0,0,0,0,0,0,0,0,0,0,0,0,0,0,0,0,0,0,0,0,0,0,0,0,0,0,0,0,0,0,0,0,0,0,0,-0.1283,-0.1284,0,-0.1334,-0.1334,-0.1335,-0.1269,-0.1268,-0.1266,-0.1264,-0.1261,-0.1263,-0.1264,0,0,0,0,0,0,0,0,0,0,0,0,0,-0.1222,-0.1222,-0.1283,-0.1284,-0.1285,-0.1334,-0.1334,-0.1335,-0.127,-0.1267,-0.1265,-0.1263,-0.126,-0.1262,-0.1264,0,0,0,0,0,0,0,0,0,0,0,0,0,-0.1252,-0.1222,-0.1283,-0.1263,-0.1263,-0.1334,-0.1334,-0.1335,-0.127,-0.1267,-0.1265,-0.1262,-0.126,-0.1262,-0.1265,-0.1334,0,0,-0.1272,-0.1273,0,0,0,0,0,0,0,0,-0.1251,-0.1254,-0.1265,-0.1265,-0.1264,-0.1298,-0.1312,-0.1334,-0.1271,-0.1261,-0.1264,-0.1261,-0.1275,-0.1276,-0.1283,-0.1334,-0.1333,-0.1272,-0.1274,-0.1275,-0.1275,0,0,0,0,0,0,0,-0.1248,-0.1252,-0.1297,-0.1267,-0.1266,-0.1285,-0.1284,-0.1316,-0.1276,-0.1261,-0.1258,-0.1275,-0.1272,-0.1281,-0.1282,-0.1333,-0.1272,-0.1274,-0.1276,-0.1277,-0.1334,-0.1334,0,0,0,0,0,0,-0.1253,-0.125,-0.1295,-0.1299,-0.1258,-0.1288,-0.1288,-0.1285,-0.1277,-0.1276,-0.1277,-0.1272,-0.1278,-0.128,-0.1282,-0.1275,-0.1275,-0.1277,-0.1278,-0.1334,-0.1334,-0.1334,0,0,0,0,0,0,-0.1251,-0.1256,-0.1293,-0.1282,-0.1288,-0.1292,-0.129,-0.1288,-0.1284,-0.1291,-0.1286,-0.1275,-0.1276,-0.1279,-0.1275,-0.1277,-0.1278,-0.128,-0.1334,-0.1334,-0.1334,-0.1317,0,0,0,0,0,0,-0.1249,-0.1254,-0.1244,-0.1281,-0.1289,-0.1319,-0.1293,-0.1291,-0.1302,-0.1295,-0.1289,-0.1286,-0.1274,-0.1271,-0.1278,-0.128,-0.1282,-0.1334,-0.1334,-0.1334,-0.1317,-0.1316,-0.1315,0,0,0,0,0,-0.1246,-0.1236,-0.1243,-0.1249,-0.1278,-0.132,-0.1325,-0.1316,-0.1305,-0.1302,-0.1283,-0.1285,-0.1276,-0.1274,-0.1281,-0.1284,-0.1334,-0.1334,-0.1334,-0.1318,-0.1316,-0.1315,0,0,0,0,0,0,-0.1197,-0.1231,-0.1238,-0.1236,-0.1274,-0.1311,-0.1307,-0.1323,-0.1313,-0.1296,-0.1293,-0.1289,-0.1286,-0.1295,-0.1292,-0.13,-0.1305,-0.1307,-0.129,-0.1289,-0.1288,-0.127,-0.1284,0,0,0,0,0,-0.1191,-0.1186,-0.1238,-0.1235,-0.1252,-0.1288,-0.1302,-0.1309,-0.1317,-0.1309,-0.1311,-0.1305,-0.1301,-0.1298,-0.1302,-0.132,-0.129,-0.1325,-0.1324,-0.1323,-0.1313,-0.1276,-0.127,-0.1335,-0.1335,-0.1335,0,0,-0.1173,-0.1191,-0.1188,-0.1225,-0.1247,-0.1271,-0.1285,-0.1309,-0.1314,-0.1316,-0.1304,-0.1309,-0.1305,-0.1302,-0.1303,-0.1304,-0.1284,-0.1324,-0.1323,-0.1312,-0.1276,-0.1269,-0.1263,-0.1335,-0.1335,-0.1335,0,0,-0.1149,-0.1153,-0.115,-0.1182,-0.1228,-0.1252,-0.1264,-0.131,-0.1303,-0.132,-0.1306,-0.1301,-0.1321,-0.13,-0.1296,-0.1301,-0.1282,-0.1317,-0.1298,-0.1262,-0.1256,-0.1251,-0.1177,-0.1165,-0.1315,-0.1315,-0.1315,0,-0.113,-0.1135,-0.1159,-0.1176,-0.1196,-0.1244,-0.126,-0.1273,-0.1309,-0.1302,-0.1305,-0.1305,-0.131,-0.1285,-0.1281,-0.1297,-0.1265,-0.13,-0.1259,-0.1253,-0.1247,-0.1174,-0.1161,-0.1314,-0.1314,-0.1314,-0.1314,0,-0.1118,-0.1125,-0.1128,-0.1156,-0.1176,-0.1203,-0.1238,-0.1249,-0.1262,-0.1276,-0.1266,-0.1271,-0.1262,-0.1275,-0.1281,-0.1254,-0.1236,-0.1262,-0.1257,-0.1239,-0.1163,-0.115,-0.1313,-0.1313,-0.1313,-0.1314,0,0,-0.1086,-0.1115,-0.1119,-0.1129,-0.1173,-0.1193,-0.1191,-0.1211,-0.1199,-0.1226,-0.1202,-0.1211,-0.122,-0.1215,-0.1228,-0.121,-0.1144,-0.1224,-0.1223,-0.1141,-0.1034,-0.0997,-0.0978,-0.1167,-0.1165,-0.1164,-0.0985,0,-0.108,-0.1104,-0.1112,-0.1127,-0.1148,-0.1169,-0.116,-0.1173,-0.1181,-0.1169,-0.117,-0.1157,-0.1194,-0.1189,-0.1176,-0.1165,-0.1113,-0.1187,-0.1071,-0.1066,-0.1029,-0.0964,-0.0854,-0.0685,-0.0972,-0.097,-0.0968,0,-0.108,-0.1096,-0.1115,-0.1118,-0.1123,-0.1129,-0.1121,-0.1118,-0.1105,-0.1105,-0.1094,-0.1097,-0.1073,-0.111,-0.1044,-0.1093,-0.1051,-0.1036,-0.1029,-0.0992,-0.1006,-0.0756,-0.0649,-0.069,-0.0947,-0.0949,-0.095,0,-0.1072,-0.1095,-0.1107,-0.1118,-0.1131,-0.1119,-0.1112,-0.1102,-0.1082,-0.1061,-0.1048,-0.1022,-0.1004,-0.0969,-0.0955,-0.0989,-0.0873,-0.0908,-0.0813,-0.0809,-0.0689,-0.0677,-0.06,-0.082,-0.082,-0.0821,-0.0821,0,-0.1073,-0.1076,-0.1108,-0.1117,-0.1101,-0.1109,-0.1077,-0.1065,-0.104,-0.0999,-0.1014,-0.0978,-0.0974,-0.0924,-0.0905,-0.0813,-0.0819,-0.0776,-0.0757,-0.0678,-0.0668,-0.0681,-0.0779,-0.0814,-0.0816,-0.0817,-0.0818,0,-0.1047,-0.1082,-0.1087,-0.1102,-0.11,-0.1083,-0.1051,-0.1021,-0.1015,-0.0961,-0.0948,-0.0923,-0.0857,-0.0834,-0.0759,-0.0732,-0.0653,-0.062,-0.0513,-0.0485,-0.0449,-0.0551,-0.0481,-0.0456,-0.046,-0.0458,-0.0456,0,-0.103,-0.1042,-0.1062,-0.1053,-0.1053,-0.1037,-0.1009,-0.1003,-0.0969,-0.0921,-0.0881,-0.0819,-0.075,-0.063,-0.0558,-0.0455,-0.0552,-0.0311,-0.0362,-0.0401,-0.0501,-0.059,-0.0581,-0.017,-0.0166,-0.0163,-0.0161,0,-0.0976,-0.0991,-0.0984,-0.0981,-0.0967,-0.0937,-0.0904,-0.0887,-0.0859,-0.0823,-0.0739,-0.068,-0.056,-0.0404,-0.0304,-0.0253,-0.0336,-0.0243,-0.0303,-0.0278,-0.0347,-0.0327,-0.0326,-0.0132,-0.0135,-0.0137,-0.0139,-0.014,-0.091,-0.0894,-0.0895,-0.0872,-0.0855,-0.081,-0.076,-0.0735,-0.0672,-0.0576,-0.058,-0.0443,-0.0294,-0.013,-0.0104,-0.0007,-0.013,0.0014,-0.0099,-0.0178,-0.0187,-0.012,0.0081,0.0079,0.0078,0.0077,0.0076,0,-0.0821,-0.0805,-0.0779,-0.0747,-0.0691,-0.0716,-0.0656,-0.0593,-0.0501,-0.0412,-0.0322,-0.0113,0.0029,0.0096,0.0198,0.0155,0.0134,0.0094,0.0004,0.0014,0.0104,0.0082,0.0314,0.0314,0.0314,0.0314,0.0314,0.0314,-0.077,-0.0718,-0.0705,-0.0593,-0.0568,-0.0475,-0.0433,-0.0354,-0.0267,-0.0086,0.0055,0.0147,0.0198,0.0125,0.0113,0.0115,0.0008,0.0006,-0.0098,-0.0052,-0.0068,-0.0084,-0.0123,0.0062,0.0062,-0.0074,-0.0076,-0.0077]},{"header":{"parameterUnit":"m.s-1","parameterCategory":2,"la1":30.2991,"la2":30.254,"lo1":-89.0895,"lo2":-89.0444,"dy":0.0017,"dx":0.0017,"nx":28,"ny":28,"refTime":"2025-06-06T21:00:00:Z","depth":"0","parameterNumber":3,"parameterNumberName":"V-component_of_CURRENTS"},"data":[0,0,0,0,0,0,0,0,0,0,0,0,0,0,0,0,0,0,0,0,0,0,0,0,0,0,0,0,0,0,0,0,0,0,0,0,0,0,0,0,0,0,0,0,0,0,0,0,0,0,0,0,0,0,0,0,0,0,-0.0076,-0.0077,0,-0.0154,-0.0155,-0.0156,-0.019,-0.0189,-0.0189,-0.0189,-0.0177,-0.0177,-0.0177,0,0,0,0,0,0,0,0,0,0,0,0,0,0.001,0.0009,-0.0076,-0.0077,-0.0078,-0.0154,-0.0155,-0.0157,-0.019,-0.0189,-0.0189,-0.0188,-0.0177,-0.0177,-0.0177,0,0,0,0,0,0,0,0,0,0,0,0,0,-0.0045,0.0009,-0.0076,-0.0102,-0.0105,-0.0154,-0.0155,-0.0157,-0.019,-0.0189,-0.0189,-0.0188,-0.0177,-0.0177,-0.0177,-0.0187,0,0,-0.0177,-0.0177,0,0,0,0,0,0,0,0,-0.0042,-0.0049,-0.0097,-0.01,-0.0103,-0.016,-0.0121,-0.0162,-0.019,-0.016,-0.0189,-0.0188,-0.0162,-0.0163,-0.0183,-0.0187,-0.0186,-0.0177,-0.0177,-0.0177,-0.0177,0,0,0,0,0,0,0,-0.0038,-0.0046,-0.0109,-0.0098,-0.0102,-0.0121,-0.0128,-0.0129,-0.0163,-0.0162,-0.0164,-0.017,-0.0163,-0.0183,-0.0183,-0.0186,-0.0177,-0.0177,-0.0177,-0.0177,-0.0228,-0.0229,0,0,0,0,0,0,-0.0023,-0.0042,-0.0107,-0.0111,-0.0068,-0.0123,-0.0131,-0.0144,-0.0165,-0.0168,-0.017,-0.0171,-0.0184,-0.0183,-0.0182,-0.0207,-0.0177,-0.0177,-0.0177,-0.0227,-0.0228,-0.023,0,0,0,0,0,0,-0.0021,-0.0029,-0.0103,-0.0076,-0.0087,-0.0124,-0.0139,-0.0146,-0.0163,-0.0171,-0.0173,-0.0179,-0.0183,-0.0182,-0.0211,-0.0205,-0.0177,-0.0177,-0.0225,-0.0227,-0.0229,-0.0247,0,0,0,0,0,0,-0.0019,-0.0028,-0.0034,-0.0075,-0.0088,-0.0136,-0.0139,-0.0148,-0.0166,-0.0168,-0.0179,-0.0178,-0.0183,-0.0212,-0.0211,-0.0205,-0.0177,-0.0223,-0.0226,-0.0228,-0.0245,-0.0249,-0.0253,0,0,0,0,0,-0.0015,-0.0035,-0.0034,-0.0042,-0.0095,-0.0137,-0.0145,-0.0171,-0.0167,-0.0183,-0.0206,-0.0178,-0.0226,-0.0214,-0.0213,-0.0206,-0.0222,-0.0225,-0.0228,-0.0243,-0.0248,-0.0253,0,0,0,0,0,0,-0.0012,-0.0041,-0.0041,-0.0071,-0.0098,-0.0141,-0.016,-0.0169,-0.0201,-0.0202,-0.0203,-0.0206,-0.0228,-0.0223,-0.0208,-0.0232,-0.0216,-0.0219,-0.0227,-0.0232,-0.0236,-0.0225,-0.0177,0,0,0,0,0,-0.0009,-0.0025,-0.0056,-0.0078,-0.0091,-0.0121,-0.0139,-0.0157,-0.0188,-0.0201,-0.0207,-0.0221,-0.0242,-0.0242,-0.026,-0.027,-0.0255,-0.0265,-0.027,-0.0273,-0.0266,-0.0256,-0.0258,-0.024,-0.024,-0.024,0,0,-0.0012,-0.003,-0.0039,-0.0077,-0.01,-0.0133,-0.0132,-0.0165,-0.019,-0.0192,-0.0226,-0.0238,-0.0253,-0.0279,-0.0284,-0.0269,-0.0274,-0.0277,-0.028,-0.0271,-0.026,-0.0261,-0.0262,-0.0242,-0.0241,-0.0241,0,0,-0.0035,-0.0043,-0.0066,-0.0089,-0.0122,-0.0143,-0.0147,-0.0186,-0.02,-0.0235,-0.0248,-0.0262,-0.0284,-0.0298,-0.0306,-0.0342,-0.0304,-0.0341,-0.034,-0.0331,-0.0332,-0.0332,-0.0319,-0.0318,-0.0333,-0.0333,-0.0333,0,-0.0037,-0.0071,-0.0081,-0.0113,-0.0131,-0.0144,-0.0176,-0.0201,-0.0242,-0.0249,-0.0246,-0.0286,-0.0293,-0.032,-0.034,-0.0347,-0.0337,-0.0316,-0.0334,-0.0334,-0.0334,-0.0321,-0.0319,-0.0334,-0.0334,-0.0334,-0.0334,0,-0.0082,-0.0107,-0.0124,-0.0162,-0.0183,-0.0214,-0.0239,-0.0257,-0.0262,-0.0276,-0.0297,-0.0317,-0.0331,-0.0337,-0.035,-0.0356,-0.0348,-0.0345,-0.0313,-0.0336,-0.0322,-0.032,-0.0336,-0.0335,-0.0335,-0.0335,0,0,-0.0094,-0.0144,-0.015,-0.0169,-0.0208,-0.0233,-0.0264,-0.0294,-0.0304,-0.0322,-0.033,-0.0364,-0.035,-0.0361,-0.0366,-0.0357,-0.0353,-0.0349,-0.0348,-0.0323,-0.0329,-0.0314,-0.031,-0.035,-0.035,-0.035,-0.032,0,-0.0125,-0.0186,-0.02,-0.025,-0.0281,-0.029,-0.0314,-0.0336,-0.0343,-0.0353,-0.0353,-0.0368,-0.0366,-0.0367,-0.036,-0.0362,-0.0349,-0.0361,-0.0322,-0.0321,-0.0293,-0.0308,-0.0173,-0.0135,-0.0318,-0.0318,-0.0318,0,-0.0166,-0.0199,-0.0253,-0.0286,-0.0298,-0.0324,-0.0344,-0.0367,-0.0378,-0.0377,-0.0376,-0.0375,-0.0377,-0.0366,-0.0353,-0.0361,-0.0344,-0.0335,-0.0334,-0.0308,-0.0302,-0.0142,-0.0124,0.0048,-0.0315,-0.0315,-0.0315,0,-0.0176,-0.0233,-0.0272,-0.0288,-0.0331,-0.0344,-0.0359,-0.0374,-0.0382,-0.0387,-0.0385,-0.0382,-0.0377,-0.036,-0.035,-0.0347,-0.0328,-0.032,-0.0287,-0.0286,-0.0157,-0.0145,0.0048,-0.0298,-0.0298,-0.0298,-0.0298,0,-0.0208,-0.0239,-0.0279,-0.0304,-0.0333,-0.0353,-0.0373,-0.0383,-0.0389,-0.0394,-0.0393,-0.0394,-0.0374,-0.0366,-0.0349,-0.0316,-0.0325,-0.0284,-0.0276,-0.0163,-0.0152,0.0013,0.0038,-0.0297,-0.0297,-0.0297,-0.0297,0,-0.0223,-0.0252,-0.0292,-0.0331,-0.0343,-0.0361,-0.0383,-0.0393,-0.0397,-0.0402,-0.0402,-0.0399,-0.0394,-0.0381,-0.0354,-0.0312,-0.0189,-0.0273,-0.0143,-0.0121,0.0073,0.0088,0.0189,0.0289,-0.0217,-0.0216,-0.0215,0,-0.0242,-0.0267,-0.0305,-0.032,-0.0339,-0.0366,-0.0381,-0.0395,-0.04,-0.0407,-0.0407,-0.0408,-0.0415,-0.0376,-0.0301,-0.0257,-0.0166,-0.0088,-0.006,0.011,0.0133,0.0125,0.0201,0.0107,0.0111,0.0113,0.0115,0,-0.0264,-0.0269,-0.0293,-0.0325,-0.0346,-0.0363,-0.0384,-0.039,-0.0398,-0.0403,-0.0407,-0.0417,-0.038,-0.0271,-0.0206,-0.015,0.0066,-0.0037,0.0127,0.0389,0.0408,0.05,0.0054,0.0138,0.0135,0.0134,0.0132,0.0132,-0.0264,-0.0273,-0.0295,-0.0321,-0.0337,-0.0344,-0.034,-0.0358,-0.0358,-0.0334,-0.0383,-0.0349,-0.0182,-0.0081,-0.0016,0.0306,0.0183,0.044,0.0439,0.0411,0.053,0.0118,0.0208,0.0206,0.0205,0.0203,0.0202,0,-0.0263,-0.027,-0.0293,-0.0307,-0.0305,-0.0322,-0.0326,-0.0297,-0.028,-0.0263,-0.0265,-0.0086,0.0121,0.031,0.067,0.0818,0.086,0.0899,0.0985,0.1036,0.0701,0.0745,0.0972,0.0972,0.0972,0.0972,0.0971,0.0971,-0.026,-0.0273,-0.0282,-0.027,-0.027,-0.0242,-0.0227,-0.0186,-0.0147,-0.0031,0.0071,0.0113,0.0435,0.0872,0.1267,0.1311,0.1446,0.1388,0.1405,0.1258,0.1218,0.1179,0.1235,0.1561,0.1561,0.1832,0.1835,0.1837]}],[{"header":{"parameterUnit":"m.s-1","parameterCategory":2,"la1":30.2991,"la2":30.254,"lo1":-89.0895,"lo2":-89.0444,"dy":0.0017,"dx":0.0017,"nx":28,"ny":28,"refTime":"2025-06-06T21:00:00:Z","depth":"2","parameterNumber":2,"parameterNumberName":"U-component_of_CURRENTS"},"data":[0,0,0,0,0,0,0,0,0,0,0,0,0,0,0,0,0,0,0,0,0,0,0,0,0,0,0,0,0,0,0,0,0,0,0,0,0,0,0,0,0,0,0,0,0,0,0,0,0,0,0,0,0,0,0,0,0,0,-0.2196,-0.2197,0,-0.2326,-0.2329,-0.2332,-0.232,-0.2317,-0.2313,-0.231,-0.2251,-0.2253,-0.2255,0,0,0,0,0,0,0,0,0,0,0,0,0,-0.2104,-0.2106,-0.2196,-0.2197,-0.2197,-0.2326,-0.2329,-0.2332,-0.2321,-0.2316,-0.2312,-0.2308,-0.2251,-0.2253,-0.2255,0,0,0,0,0,0,0,0,0,0,0,0,0,-0.2194,-0.2107,-0.2196,-0.2195,-0.2195,-0.2325,-0.2329,-0.2333,-0.2321,-0.2316,-0.2311,-0.2307,-0.225,-0.2253,-0.2255,-0.2372,0,0,-0.2262,-0.2263,0,0,0,0,0,0,0,0,-0.2189,-0.22,-0.2195,-0.2195,-0.2195,-0.2288,-0.2274,-0.2331,-0.2323,-0.229,-0.231,-0.2304,-0.224,-0.2243,-0.2303,-0.2369,-0.2367,-0.2263,-0.2264,-0.2265,-0.2266,0,0,0,0,0,0,0,-0.2183,-0.2195,-0.2263,-0.2196,-0.2196,-0.2244,-0.2251,-0.2288,-0.23,-0.2292,-0.2288,-0.228,-0.224,-0.2302,-0.2301,-0.2366,-0.2263,-0.2265,-0.2266,-0.2267,-0.2369,-0.237,0,0,0,0,0,0,-0.2133,-0.2189,-0.2259,-0.2266,-0.2162,-0.2248,-0.2257,-0.2276,-0.2304,-0.23,-0.2284,-0.2278,-0.23,-0.2298,-0.2298,-0.2285,-0.2265,-0.2267,-0.2269,-0.2367,-0.2369,-0.237,0,0,0,0,0,0,-0.2132,-0.214,-0.2253,-0.2216,-0.2231,-0.2252,-0.2276,-0.2281,-0.2281,-0.2297,-0.2291,-0.2267,-0.2296,-0.2295,-0.2304,-0.2287,-0.2268,-0.2271,-0.2366,-0.2368,-0.237,-0.2354,0,0,0,0,0,0,-0.2129,-0.214,-0.2137,-0.2213,-0.2231,-0.2304,-0.2279,-0.2287,-0.2279,-0.2272,-0.2282,-0.2276,-0.2292,-0.2301,-0.2307,-0.229,-0.2273,-0.2364,-0.2367,-0.2369,-0.2353,-0.2356,-0.2357,0,0,0,0,0,-0.2126,-0.2145,-0.2137,-0.2144,-0.2228,-0.2303,-0.232,-0.2327,-0.2282,-0.2305,-0.2304,-0.2272,-0.2318,-0.2306,-0.2312,-0.2294,-0.2363,-0.2366,-0.2369,-0.2352,-0.2355,-0.2357,0,0,0,0,0,0,-0.2113,-0.2147,-0.2139,-0.2168,-0.2212,-0.2294,-0.23,-0.2306,-0.2336,-0.2292,-0.2307,-0.2305,-0.2306,-0.2316,-0.2301,-0.2334,-0.2329,-0.2333,-0.2314,-0.2317,-0.2319,-0.2277,-0.2275,0,0,0,0,0,-0.2106,-0.2116,-0.2168,-0.2185,-0.2194,-0.224,-0.2261,-0.2264,-0.2296,-0.2302,-0.2309,-0.2313,-0.2344,-0.2335,-0.2368,-0.2394,-0.2373,-0.2384,-0.2386,-0.2387,-0.2361,-0.2401,-0.2404,-0.238,-0.2379,-0.2379,0,0,-0.2089,-0.2117,-0.2113,-0.2179,-0.2204,-0.224,-0.2243,-0.2255,-0.2279,-0.2289,-0.2305,-0.2322,-0.2356,-0.2388,-0.2386,-0.2376,-0.2369,-0.2391,-0.2391,-0.2363,-0.2405,-0.2407,-0.2408,-0.2381,-0.2381,-0.2381,0,0,-0.2095,-0.2097,-0.2113,-0.214,-0.2162,-0.2206,-0.2191,-0.2246,-0.2256,-0.2288,-0.23,-0.2312,-0.2346,-0.2387,-0.2407,-0.2444,-0.2387,-0.243,-0.2395,-0.2436,-0.2437,-0.2439,-0.2343,-0.2336,-0.2422,-0.2422,-0.2422,0,-0.2081,-0.2096,-0.2132,-0.2158,-0.2154,-0.2177,-0.2188,-0.2241,-0.229,-0.2307,-0.2265,-0.2342,-0.2354,-0.2419,-0.2412,-0.2444,-0.2405,-0.238,-0.2436,-0.2437,-0.2439,-0.2341,-0.2333,-0.2421,-0.2421,-0.2421,-0.2421,0,-0.211,-0.2094,-0.2099,-0.2132,-0.2166,-0.2158,-0.2215,-0.2256,-0.2241,-0.2274,-0.2305,-0.2347,-0.2373,-0.2392,-0.2396,-0.2424,-0.2366,-0.244,-0.2421,-0.244,-0.2335,-0.2327,-0.2421,-0.2421,-0.2421,-0.2421,0,0,-0.2124,-0.2117,-0.2103,-0.2099,-0.2119,-0.2166,-0.2211,-0.2277,-0.2287,-0.2319,-0.2351,-0.2386,-0.2358,-0.2379,-0.2401,-0.2424,-0.2371,-0.2401,-0.2404,-0.2284,-0.2339,-0.2161,-0.2134,-0.2451,-0.2452,-0.2452,-0.2234,0,-0.2113,-0.2126,-0.2131,-0.2129,-0.2132,-0.2165,-0.2198,-0.226,-0.229,-0.2342,-0.2386,-0.2394,-0.2371,-0.2348,-0.2373,-0.2419,-0.236,-0.2415,-0.2355,-0.235,-0.2177,-0.2126,-0.2058,-0.1848,-0.2226,-0.2225,-0.2224,0,-0.2118,-0.2128,-0.2109,-0.21,-0.2102,-0.2115,-0.2172,-0.2204,-0.2291,-0.2292,-0.2322,-0.2346,-0.2379,-0.2357,-0.2358,-0.2385,-0.2306,-0.2316,-0.2311,-0.2144,-0.216,-0.1908,-0.1819,-0.2211,-0.2212,-0.2213,-0.2214,0,-0.2113,-0.2099,-0.2074,-0.2067,-0.2088,-0.2101,-0.2113,-0.2176,-0.2191,-0.2253,-0.2256,-0.2305,-0.2315,-0.2305,-0.2253,-0.2301,-0.2232,-0.233,-0.2067,-0.2049,-0.1976,-0.1951,-0.2254,-0.2254,-0.2255,-0.2255,-0.2256,0,-0.2095,-0.206,-0.2058,-0.2056,-0.2025,-0.2054,-0.2039,-0.2073,-0.2106,-0.2128,-0.2186,-0.2212,-0.2302,-0.2288,-0.2236,-0.2081,-0.2193,-0.2002,-0.1991,-0.1958,-0.1936,-0.2272,-0.2277,-0.2247,-0.2249,-0.225,-0.2252,0,-0.2045,-0.2043,-0.2022,-0.2028,-0.2014,-0.1994,-0.1969,-0.1961,-0.1989,-0.2043,-0.2048,-0.2138,-0.2099,-0.2099,-0.2084,-0.2019,-0.193,-0.1815,-0.1682,-0.1658,-0.171,-0.1718,-0.1537,-0.1529,-0.1522,-0.1516,-0.1512,0,-0.1986,-0.197,-0.1977,-0.1948,-0.1926,-0.1895,-0.1849,-0.1879,-0.1893,-0.1997,-0.2026,-0.2013,-0.1985,-0.1834,-0.172,-0.1522,-0.1658,-0.1335,-0.1435,-0.1633,-0.1642,-0.166,-0.1676,-0.1301,-0.1295,-0.129,-0.1286,0,-0.1868,-0.1874,-0.1887,-0.1828,-0.179,-0.1757,-0.1733,-0.1751,-0.1825,-0.1872,-0.1925,-0.191,-0.1749,-0.1574,-0.1293,-0.1189,-0.1388,-0.1221,-0.1509,-0.149,-0.1394,-0.1409,-0.1436,-0.1242,-0.1247,-0.125,-0.1252,-0.1254,-0.1744,-0.1712,-0.1719,-0.1668,-0.1631,-0.1595,-0.1566,-0.1616,-0.1641,-0.1691,-0.1765,-0.1686,-0.1625,-0.1173,-0.0995,-0.0837,-0.0947,-0.0964,-0.0988,-0.1015,-0.1024,-0.0922,-0.0674,-0.0675,-0.0676,-0.0677,-0.0678,0,-0.158,-0.1551,-0.1511,-0.1486,-0.1439,-0.1432,-0.1443,-0.1455,-0.1486,-0.1477,-0.1455,-0.1292,-0.1095,-0.0994,-0.0687,-0.0547,-0.0608,-0.0521,-0.07,-0.0741,-0.0779,-0.0787,-0.0368,-0.0367,-0.0366,-0.0365,0,0,-0.1471,-0.1414,-0.1412,-0.1298,-0.1247,-0.1165,-0.1155,-0.1191,-0.1193,-0.1141,-0.1065,-0.1051,-0.1026,-0.0778,-0.063,-0.0475,-0.0597,-0.0401,-0.0656,-0.0913,-0.095,-0.1035,-0.109,0,0,0,0,0]},{"header":{"parameterUnit":"m.s-1","parameterCategory":2,"la1":30.2991,"la2":30.254,"lo1":-89.0895,"lo2":-89.0444,"dy":0.0017,"dx":0.0017,"nx":28,"ny":28,"refTime":"2025-06-06T21:00:00:Z","depth":"2","parameterNumber":3,"parameterNumberName":"V-component_of_CURRENTS"},"data":[0,0,0,0,0,0,0,0,0,0,0,0,0,0,0,0,0,0,0,0,0,0,0,0,0,0,0,0,0,0,0,0,0,0,0,0,0,0,0,0,0,0,0,0,0,0,0,0,0,0,0,0,0,0,0,0,0,0,-0.0125,-0.0125,0,-0.0088,-0.0088,-0.0087,-0.0096,-0.0097,-0.0097,-0.0098,-0.0006,-0.0002,0.0001,0,0,0,0,0,0,0,0,0,0,0,0,0,-0.011,-0.011,-0.0125,-0.0125,-0.0124,-0.0089,-0.0088,-0.0087,-0.0095,-0.0097,-0.0098,-0.0099,-0.0007,-0.0003,0.0001,0,0,0,0,0,0,0,0,0,0,0,0,0,-0.0096,-0.011,-0.0125,-0.0127,-0.0127,-0.0089,-0.0088,-0.0087,-0.0095,-0.0097,-0.0098,-0.0099,-0.0008,-0.0003,0.0002,0.0062,0,0,0.0017,0.0019,0,0,0,0,0,0,0,0,-0.0097,-0.0097,-0.0126,-0.0126,-0.0126,-0.0101,-0.0049,-0.0035,-0.0095,-0.0104,-0.0098,-0.01,-0.0033,-0.0026,-0.0013,0.0067,0.007,0.0018,0.0021,0.0023,0.0024,0,0,0,0,0,0,0,-0.0098,-0.0098,-0.0107,-0.0126,-0.0126,-0.0098,-0.0098,-0.0046,-0.0057,-0.0103,-0.0104,-0.0105,-0.0033,-0.0017,-0.001,0.0072,0.0017,0.0022,0.0025,0.0027,0.0118,0.0118,0,0,0,0,0,0,-0.0112,-0.0099,-0.0108,-0.0107,-0.0119,-0.0098,-0.0098,-0.0105,-0.0059,-0.0055,-0.0104,-0.0105,-0.0025,-0.0016,-0.0007,-0.0019,0.0023,0.0028,0.003,0.0119,0.0118,0.0117,0,0,0,0,0,0,-0.0112,-0.0114,-0.011,-0.0104,-0.0102,-0.0097,-0.0105,-0.0104,-0.0108,-0.0061,-0.0055,-0.0112,-0.0026,-0.0014,-0.0,-0.0012,0.003,0.0034,0.0119,0.0119,0.0118,0.0013,0,0,0,0,0,0,-0.0112,-0.0114,-0.0121,-0.0105,-0.0103,-0.0118,-0.0104,-0.0102,-0.0106,-0.0108,-0.0065,-0.0057,-0.0026,-0.0008,0.0005,-0.0005,0.0038,0.012,0.0119,0.0118,0.0017,0.0008,0.0001,0,0,0,0,0,-0.0111,-0.0132,-0.0122,-0.0123,-0.0114,-0.0119,-0.0116,-0.0114,-0.0105,-0.0119,-0.0097,-0.006,-0.0006,-0.0005,0.0011,0.0002,0.0121,0.0119,0.0118,0.002,0.001,0.0001,0,0,0,0,0,0,-0.0134,-0.0134,-0.0123,-0.0143,-0.0141,-0.0123,-0.0131,-0.012,-0.011,-0.0112,-0.0065,-0.0056,-0.0046,-0.0005,-0.0005,0.0025,0.0065,0.0066,-0.0015,-0.0024,-0.0032,-0.0044,0.0043,0,0,0,0,0,-0.0138,-0.015,-0.0145,-0.0158,-0.0161,-0.0141,-0.014,-0.014,-0.0128,-0.0126,-0.0097,-0.0062,-0.0033,-0.002,0.0016,0.0037,0.0091,0.0042,0.0034,0.0027,0.0028,0.0102,0.0101,0.0113,0.0113,0.0113,0,0,-0.0146,-0.0149,-0.0153,-0.0162,-0.0155,-0.0168,-0.0145,-0.0157,-0.0167,-0.0113,-0.0118,-0.0085,-0.0033,-0.0024,-0.0014,0.0004,0.0046,0.0025,0.0018,0.0023,0.0101,0.01,0.0099,0.0112,0.0112,0.0112,0,0,-0.0175,-0.0175,-0.0195,-0.02,-0.0204,-0.0196,-0.0205,-0.0198,-0.0199,-0.0195,-0.0162,-0.0139,-0.0095,-0.0065,-0.0041,-0.0062,0.0003,-0.0058,-0.0108,-0.0037,-0.0037,-0.0036,0.0005,0.001,-0.0064,-0.0064,-0.0065,0,-0.018,-0.0207,-0.0202,-0.0225,-0.0232,-0.0214,-0.0238,-0.0233,-0.0223,-0.0217,-0.0216,-0.015,-0.0109,-0.0083,-0.0109,-0.0078,-0.0043,-0.008,-0.0047,-0.0045,-0.0043,-0.0,0.0007,-0.007,-0.0069,-0.0069,-0.0068,0,-0.0223,-0.0244,-0.0259,-0.0279,-0.029,-0.0308,-0.0306,-0.0314,-0.0306,-0.0287,-0.0269,-0.0222,-0.0185,-0.0172,-0.0152,-0.0123,-0.0107,-0.0066,-0.0026,-0.005,-0.0004,0.0005,-0.0077,-0.0075,-0.0074,-0.0072,0,0,-0.0234,-0.0278,-0.0283,-0.0299,-0.032,-0.0331,-0.0357,-0.036,-0.0361,-0.0349,-0.034,-0.0303,-0.0276,-0.0247,-0.0211,-0.0162,-0.0127,-0.0128,-0.0122,-0.0093,0.0001,0.0028,0.0041,-0.0088,-0.0086,-0.0085,0.0017,0,-0.0264,-0.0319,-0.0332,-0.0373,-0.0401,-0.0399,-0.0417,-0.0419,-0.0408,-0.0395,-0.0346,-0.0317,-0.0304,-0.0288,-0.0246,-0.0146,-0.0104,-0.016,0.0027,0.0032,0.0055,0.0053,0.0112,0.021,0.0027,0.0028,0.0029,0,-0.0302,-0.0335,-0.0387,-0.042,-0.0429,-0.0447,-0.0465,-0.0475,-0.0455,-0.0444,-0.0421,-0.0379,-0.0329,-0.0299,-0.0165,-0.0208,-0.0123,-0.0045,-0.0038,0.0035,0.0078,0.0212,0.0235,0.0046,0.0045,0.0044,0.0042,0,-0.0323,-0.037,-0.0411,-0.0424,-0.0461,-0.0476,-0.0486,-0.0486,-0.0486,-0.0464,-0.0452,-0.0397,-0.0347,-0.0248,-0.0139,-0.0141,0.0022,0.0058,0.0161,0.0163,0.0278,0.0287,0.0168,0.0168,0.0168,0.0167,0.0167,0,-0.0359,-0.0387,-0.0419,-0.0443,-0.0475,-0.0492,-0.0507,-0.0516,-0.0506,-0.0489,-0.0471,-0.0429,-0.0328,-0.0241,-0.0142,0.002,0.0023,0.0155,0.0199,0.0238,0.0243,0.016,0.0157,0.0171,0.017,0.017,0.0169,0,-0.0384,-0.0407,-0.0448,-0.0483,-0.0491,-0.0511,-0.0522,-0.0528,-0.0521,-0.0499,-0.0492,-0.0433,-0.032,-0.0236,-0.0053,0.0039,0.0186,0.0243,0.0254,0.0299,0.0279,0.027,0.0392,0.0394,0.0395,0.0397,0.0398,0,-0.0406,-0.0432,-0.0469,-0.0486,-0.0501,-0.0521,-0.0535,-0.0539,-0.0538,-0.0482,-0.0467,-0.0376,-0.0284,-0.0056,0.0139,0.0313,0.0229,0.0428,0.0452,0.0275,0.0307,0.0295,0.0284,0.0555,0.0557,0.0559,0.0561,0,-0.0436,-0.0442,-0.0473,-0.0506,-0.0525,-0.054,-0.0552,-0.0556,-0.0541,-0.0498,-0.0407,-0.0318,-0.0086,0.0157,0.0342,0.0439,0.0399,0.0475,0.0326,0.0474,0.0435,0.0463,0.0446,0.0578,0.0576,0.0575,0.0574,0.0573,-0.0441,-0.0459,-0.0487,-0.0515,-0.0534,-0.0545,-0.0548,-0.0541,-0.0508,-0.0433,-0.0355,-0.0134,0.0046,0.043,0.0492,0.0577,0.0619,0.0627,0.062,0.0611,0.0597,0.0561,0.0724,0.0723,0.0722,0.0722,0.0721,0,-0.0446,-0.0456,-0.0488,-0.0515,-0.0531,-0.0532,-0.0544,-0.054,-0.048,-0.0347,-0.0238,0.004,0.0328,0.0469,0.0725,0.0808,0.0769,0.07,0.0667,0.0656,0.0644,0.0627,0.0765,0.0764,0.0762,0.0761,0,0,-0.0442,-0.0467,-0.048,-0.0499,-0.0504,-0.051,-0.0505,-0.0509,-0.0423,-0.0279,-0.0043,0.019,0.0469,0.0589,0.0653,0.0735,0.0625,0.0687,0.0674,0.0617,0.0601,0.0659,0.0628,0,0,0,0,0]}],[{"header":{"parameterUnit":"m.s-1","parameterCategory":2,"la1":30.2991,"la2":30.254,"lo1":-89.0895,"lo2":-89.0444,"dy":0.0017,"dx":0.0017,"nx":28,"ny":28,"refTime":"2025-06-06T21:00:00:Z","depth":"4","parameterNumber":2,"parameterNumberName":"U-component_of_CURRENTS"},"data":[0,0,0,0,0,0,0,0,0,0,0,0,0,0,0,0,0,0,0,0,0,0,0,0,0,0,0,0,0,0,0,0,0,0,0,0,0,0,0,0,0,0,0,0,0,0,0,0,0,0,0,0,0,0,0,0,0,0,-0.1211,-0.1212,0,-0.1293,-0.1294,-0.1295,-0.1323,-0.1323,-0.1323,-0.1322,-0.1402,-0.1405,-0.1407,0,0,0,0,0,0,0,0,0,0,0,0,0,-0.1141,-0.1142,-0.1211,-0.1212,-0.1214,-0.1293,-0.1294,-0.1295,-0.1323,-0.1323,-0.1323,-0.1322,-0.1402,-0.1404,-0.1407,0,0,0,0,0,0,0,0,0,0,0,0,0,-0.1191,-0.1142,-0.1211,-0.1238,-0.1241,-0.1293,-0.1294,-0.1295,-0.1323,-0.1323,-0.1323,-0.1322,-0.1401,-0.1404,-0.1408,-0.1435,0,0,-0.1418,-0.142,0,0,0,0,0,0,0,0,-0.1188,-0.1193,-0.1233,-0.1236,-0.124,-0.1299,-0.1299,-0.1342,-0.1323,-0.1291,-0.1322,-0.1322,-0.1369,-0.1375,-0.1389,-0.1439,-0.1442,-0.1418,-0.1421,-0.1422,-0.1423,0,0,0,0,0,0,0,-0.1184,-0.119,-0.1242,-0.1234,-0.1239,-0.1267,-0.1273,-0.1307,-0.1329,-0.1294,-0.1296,-0.1307,-0.137,-0.1386,-0.1391,-0.1443,-0.1418,-0.1421,-0.1424,-0.1425,-0.1554,-0.1555,0,0,0,0,0,0,-0.1174,-0.1187,-0.124,-0.1245,-0.1214,-0.1269,-0.1275,-0.1279,-0.1329,-0.1337,-0.1307,-0.1308,-0.138,-0.1387,-0.1394,-0.1469,-0.1422,-0.1425,-0.1427,-0.1553,-0.1554,-0.1556,0,0,0,0,0,0,-0.1172,-0.1178,-0.1237,-0.1219,-0.1229,-0.127,-0.1274,-0.1281,-0.1315,-0.134,-0.1347,-0.1336,-0.138,-0.1389,-0.1436,-0.1471,-0.1427,-0.143,-0.1551,-0.1553,-0.1555,-0.1594,0,0,0,0,0,0,-0.1169,-0.1176,-0.1187,-0.1218,-0.1229,-0.1271,-0.1275,-0.1283,-0.1321,-0.1324,-0.1367,-0.1373,-0.138,-0.1431,-0.144,-0.1475,-0.1433,-0.1549,-0.1552,-0.1554,-0.1591,-0.1597,-0.1602,0,0,0,0,0,-0.1167,-0.1184,-0.1186,-0.1194,-0.1238,-0.1272,-0.1281,-0.1308,-0.1323,-0.1338,-0.1369,-0.1372,-0.1453,-0.1435,-0.1445,-0.1482,-0.1548,-0.1551,-0.1554,-0.1589,-0.1596,-0.1602,0,0,0,0,0,0,-0.1167,-0.119,-0.1193,-0.1218,-0.1243,-0.1278,-0.1307,-0.1322,-0.1361,-0.1374,-0.1392,-0.14,-0.1459,-0.1463,-0.1443,-0.1526,-0.1501,-0.1506,-0.1524,-0.1531,-0.1537,-0.152,-0.1436,0,0,0,0,0,-0.1168,-0.1181,-0.1208,-0.1227,-0.1246,-0.128,-0.1303,-0.1321,-0.1355,-0.1373,-0.1402,-0.1437,-0.1478,-0.1497,-0.1531,-0.1575,-0.156,-0.1604,-0.161,-0.1615,-0.1608,-0.1623,-0.1629,-0.1566,-0.1566,-0.1566,0,0,-0.1175,-0.1188,-0.1198,-0.1228,-0.1256,-0.1284,-0.1294,-0.1337,-0.1366,-0.1377,-0.1434,-0.1466,-0.1496,-0.1547,-0.1573,-0.1555,-0.1623,-0.1619,-0.1622,-0.1613,-0.1627,-0.1633,-0.1638,-0.1568,-0.1567,-0.1567,0,0,-0.1186,-0.1209,-0.122,-0.1247,-0.1287,-0.1307,-0.1322,-0.1367,-0.1397,-0.1452,-0.147,-0.1516,-0.1577,-0.1598,-0.1619,-0.1676,-0.1659,-0.1693,-0.1704,-0.172,-0.1725,-0.1729,-0.1703,-0.1705,-0.1688,-0.1688,-0.1688,0,-0.1195,-0.1207,-0.1232,-0.1255,-0.1283,-0.1317,-0.1345,-0.1383,-0.1435,-0.1464,-0.1476,-0.1571,-0.1601,-0.1655,-0.1674,-0.1691,-0.1678,-0.1676,-0.1726,-0.173,-0.1733,-0.1706,-0.1707,-0.1691,-0.169,-0.169,-0.169,0,-0.1214,-0.123,-0.1249,-0.1279,-0.1312,-0.1347,-0.1395,-0.1436,-0.148,-0.1512,-0.1587,-0.1628,-0.1675,-0.1701,-0.1709,-0.1754,-0.1729,-0.1737,-0.1704,-0.1742,-0.1711,-0.1711,-0.1694,-0.1693,-0.1692,-0.1692,0,0,-0.1207,-0.125,-0.1255,-0.1272,-0.1331,-0.1358,-0.1418,-0.1472,-0.1497,-0.1574,-0.1616,-0.1701,-0.1719,-0.1742,-0.1761,-0.1774,-0.1793,-0.1764,-0.1763,-0.1729,-0.1794,-0.1634,-0.1619,-0.1809,-0.181,-0.181,-0.1756,0,-0.1211,-0.1238,-0.1269,-0.1309,-0.1332,-0.139,-0.1436,-0.1494,-0.1533,-0.1581,-0.1655,-0.1709,-0.1737,-0.176,-0.1784,-0.1797,-0.1798,-0.1804,-0.177,-0.1768,-0.1615,-0.1616,-0.1813,-0.1757,-0.1757,-0.1757,-0.1757,0,-0.1214,-0.1228,-0.1262,-0.1314,-0.1335,-0.1369,-0.1433,-0.1487,-0.1561,-0.1596,-0.1657,-0.1698,-0.1761,-0.1771,-0.1807,-0.1809,-0.1803,-0.1802,-0.18,-0.1635,-0.1609,-0.1716,-0.1757,-0.1757,-0.1757,-0.1757,-0.1757,0,-0.1183,-0.1226,-0.1248,-0.1273,-0.1339,-0.1375,-0.1429,-0.1491,-0.1532,-0.1607,-0.1621,-0.1699,-0.1741,-0.1767,-0.178,-0.1798,-0.1784,-0.1809,-0.1654,-0.1642,-0.1786,-0.1782,-0.1817,-0.1817,-0.1817,-0.1817,-0.1817,0,-0.117,-0.1192,-0.1234,-0.1256,-0.129,-0.1361,-0.1406,-0.146,-0.1523,-0.1551,-0.1633,-0.1636,-0.1744,-0.1751,-0.1763,-0.1689,-0.1775,-0.1637,-0.1616,-0.1802,-0.1801,-0.1784,-0.1782,-0.1815,-0.1815,-0.1816,-0.1816,0,-0.1129,-0.1165,-0.1192,-0.1253,-0.1278,-0.1313,-0.1403,-0.1415,-0.1489,-0.1518,-0.1551,-0.1612,-0.1605,-0.1649,-0.1671,-0.1639,-0.1604,-0.1555,-0.1713,-0.1705,-0.1455,-0.1455,-0.1375,-0.1369,-0.1364,-0.1359,-0.1356,0,-0.1105,-0.1113,-0.1175,-0.1186,-0.1215,-0.1275,-0.1303,-0.1399,-0.1393,-0.1474,-0.1459,-0.149,-0.1512,-0.1401,-0.1474,-0.1445,-0.1441,-0.1415,-0.1468,-0.1421,-0.141,-0.1418,-0.1425,-0.1347,-0.1346,-0.1345,-0.1343,0,-0.1049,-0.1081,-0.11,-0.1115,-0.1142,-0.1167,-0.1206,-0.1205,-0.1297,-0.1366,-0.1322,-0.1319,-0.1286,-0.1295,-0.1264,-0.1262,-0.1435,-0.1362,-0.1374,-0.1423,-0.1387,-0.1383,-0.1396,-0.1325,-0.1328,-0.133,-0.1331,0,-0.1002,-0.0993,-0.1017,-0.1021,-0.1047,-0.1028,-0.1084,-0.1068,-0.1098,-0.1179,-0.1162,-0.1196,-0.1261,-0.1195,-0.1177,-0.1142,-0.1143,-0.1136,-0.116,-0.1181,-0.1144,-0.1072,-0.0875,0,0,0,0,0,-0.0937,-0.0915,-0.0914,-0.0905,-0.0922,-0.0935,-0.0985,-0.1036,-0.1122,-0.1046,-0.11,-0.1062,-0.1033,-0.1055,-0.0977,-0.1092,-0.1151,-0.0999,-0.1159,-0.1226,-0.1247,-0.1222,0,0,0,0,0,0,-0.0894,-0.0892,-0.0877,-0.0793,-0.0768,-0.0769,-0.0806,-0.0875,-0.083,-0.093,-0.0906,-0.0978,-0.0952,-0.1042,-0.0946,-0.0951,-0.1027,-0.1025,-0.1022,-0.1214,-0.1233,-0.125,-0.1231,0,0,0,0,0]},{"header":{"parameterUnit":"m.s-1","parameterCategory":2,"la1":30.2991,"la2":30.254,"lo1":-89.0895,"lo2":-89.0444,"dy":0.0017,"dx":0.0017,"nx":28,"ny":28,"refTime":"2025-06-06T21:00:00:Z","depth":"4","parameterNumber":3,"parameterNumberName":"V-component_of_CURRENTS"},"data":[0,0,0,0,0,0,0,0,0,0,0,0,0,0,0,0,0,0,0,0,0,0,0,0,0,0,0,0,0,0,0,0,0,0,0,0,0,0,0,0,0,0,0,0,0,0,0,0,0,0,0,0,0,0,0,0,0,0,-0.0161,-0.0161,0,-0.0138,-0.0138,-0.0138,-0.009,-0.0089,-0.0088,-0.0087,0.001,0.0012,0.0013,0,0,0,0,0,0,0,0,0,0,0,0,0,-0.0177,-0.0177,-0.0161,-0.0161,-0.016,-0.0138,-0.0138,-0.0138,-0.009,-0.0089,-0.0088,-0.0087,0.0009,0.0011,0.0013,0,0,0,0,0,0,0,0,0,0,0,0,0,-0.0164,-0.0177,-0.0161,-0.0134,-0.0131,-0.0139,-0.0138,-0.0138,-0.009,-0.0089,-0.0087,-0.0086,0.0009,0.0011,0.0014,0.0001,0,0,0.0022,0.0023,0,0,0,0,0,0,0,0,-0.0164,-0.0163,-0.0138,-0.0136,-0.0133,-0.0116,-0.0108,-0.0088,-0.0091,-0.0106,-0.0087,-0.0085,-0.0026,-0.0021,-0.0021,0.0005,0.0009,0.0022,0.0023,0.0024,0.0025,0,0,0,0,0,0,0,-0.0165,-0.0164,-0.0152,-0.0138,-0.0135,-0.0128,-0.0124,-0.0105,-0.0073,-0.0104,-0.0101,-0.0099,-0.0024,-0.0023,-0.0018,0.0011,0.0022,0.0024,0.0025,0.0026,0.0052,0.0051,0,0,0,0,0,0,-0.0169,-0.0165,-0.0153,-0.0151,-0.0146,-0.0129,-0.0125,-0.0123,-0.0075,-0.0067,-0.01,-0.0097,-0.0028,-0.0021,-0.0014,-0.0011,0.0024,0.0027,0.0028,0.0053,0.0052,0.0051,0,0,0,0,0,0,-0.017,-0.0169,-0.0153,-0.0158,-0.0155,-0.013,-0.0128,-0.0123,-0.0119,-0.0072,-0.0062,-0.0101,-0.0027,-0.0018,0.0007,-0.0007,0.0028,0.003,0.0054,0.0053,0.0052,-0.0014,0,0,0,0,0,0,-0.017,-0.0169,-0.0175,-0.0158,-0.0155,-0.0159,-0.0129,-0.0123,-0.012,-0.0115,-0.007,-0.0059,-0.0025,0.0003,0.001,-0.0003,0.0032,0.0055,0.0053,0.0052,-0.001,-0.0017,-0.0023,0,0,0,0,0,-0.0171,-0.0183,-0.0176,-0.0175,-0.0162,-0.016,-0.0159,-0.0136,-0.0121,-0.0126,-0.0091,-0.0061,-0.0002,0.0005,0.0013,0.0001,0.0056,0.0054,0.0052,-0.0008,-0.0016,-0.0022,0,0,0,0,0,0,-0.0188,-0.0179,-0.017,-0.0177,-0.0171,-0.0152,-0.0156,-0.0143,-0.0123,-0.0115,-0.0069,-0.0057,-0.0039,-0.0015,-0.0009,0.0002,0.003,0.003,-0.0018,-0.0025,-0.0031,-0.004,0.0034,0,0,0,0,0,-0.0198,-0.0205,-0.0192,-0.0198,-0.0197,-0.018,-0.0178,-0.0165,-0.0143,-0.0133,-0.0104,-0.0072,-0.0045,-0.003,-0.0003,-0.0,0.0045,-0.0004,-0.001,-0.0015,-0.0018,0.0038,0.0037,0.0045,0.0045,0.0045,0,0,-0.0204,-0.0202,-0.0204,-0.0203,-0.0195,-0.0209,-0.0175,-0.0176,-0.0184,-0.0126,-0.0126,-0.009,-0.0047,-0.0038,-0.0029,-0.0017,0.0005,-0.0018,-0.0022,-0.0022,0.0036,0.0036,0.0035,0.0044,0.0044,0.0044,0,0,-0.0224,-0.022,-0.0234,-0.0238,-0.0236,-0.023,-0.0234,-0.0222,-0.0211,-0.0209,-0.0165,-0.0136,-0.0109,-0.0076,-0.0056,-0.0082,-0.0026,-0.0082,-0.0121,-0.0067,-0.0067,-0.0066,-0.001,-0.0004,-0.0088,-0.0088,-0.0088,0,-0.0232,-0.0251,-0.0238,-0.0257,-0.0269,-0.0245,-0.0269,-0.026,-0.0243,-0.0237,-0.0215,-0.017,-0.0126,-0.0108,-0.0111,-0.0095,-0.0055,-0.0096,-0.0074,-0.0072,-0.007,-0.0013,-0.0005,-0.0091,-0.0091,-0.0091,-0.009,0,-0.0263,-0.0286,-0.0295,-0.0316,-0.0326,-0.0343,-0.0334,-0.034,-0.0326,-0.0311,-0.0291,-0.0234,-0.0204,-0.019,-0.0154,-0.0131,-0.0105,-0.0084,-0.0054,-0.0075,-0.0013,-0.0004,-0.0096,-0.0095,-0.0094,-0.0093,0,0,-0.0271,-0.0309,-0.0317,-0.0343,-0.0362,-0.0375,-0.0395,-0.0402,-0.0414,-0.0385,-0.0387,-0.0331,-0.0295,-0.027,-0.0223,-0.0177,-0.0119,-0.0131,-0.0127,-0.0074,0.0003,0.0042,0.0057,-0.0095,-0.0094,-0.0093,0.0041,0,-0.0303,-0.0353,-0.0368,-0.0426,-0.0452,-0.0457,-0.0481,-0.0483,-0.0469,-0.0464,-0.0401,-0.038,-0.0327,-0.031,-0.0256,-0.0156,-0.0098,-0.0157,0.0013,0.0018,0.0058,0.0068,-0.0089,0.0049,0.0051,0.0053,0.0054,0,-0.0336,-0.0368,-0.0425,-0.0487,-0.05,-0.0534,-0.0572,-0.059,-0.0572,-0.0555,-0.0522,-0.047,-0.0402,-0.035,-0.0192,-0.0234,-0.0119,-0.0037,-0.003,0.0036,0.0075,0.0075,0.0072,0.007,0.0069,0.0068,0.0067,0,-0.0352,-0.0417,-0.0467,-0.0488,-0.0545,-0.0576,-0.0607,-0.0615,-0.0628,-0.0608,-0.0602,-0.0525,-0.0471,-0.0342,-0.0165,-0.0178,0.0024,0.003,0.0174,0.0179,0.0132,0.013,0.0156,0.0156,0.0156,0.0155,0.0155,0,-0.0389,-0.0437,-0.048,-0.0512,-0.0581,-0.0606,-0.0665,-0.0683,-0.0688,-0.069,-0.0644,-0.0609,-0.0463,-0.0331,-0.018,0.0032,0.0021,0.0176,0.0218,0.01,0.0093,0.0139,0.0135,0.016,0.0159,0.0158,0.0158,0,-0.0416,-0.0442,-0.0507,-0.0568,-0.0593,-0.0643,-0.071,-0.0739,-0.0744,-0.0742,-0.0736,-0.0655,-0.0479,-0.0312,-0.0082,0.0024,0.0213,0.0299,0.0167,0.0199,0.0331,0.0322,0.045,0.0452,0.0454,0.0456,0.0458,0,-0.0438,-0.0468,-0.0544,-0.0586,-0.0623,-0.069,-0.0733,-0.0764,-0.0774,-0.0751,-0.0735,-0.0598,-0.0509,-0.0166,0.0,0.0281,0.0328,0.0399,0.0355,0.0334,0.0362,0.035,0.0338,0.0461,0.0462,0.0462,0.0463,0,-0.0482,-0.0503,-0.0553,-0.0623,-0.0679,-0.0744,-0.0792,-0.0798,-0.0806,-0.0807,-0.0696,-0.0548,-0.0344,-0.0124,0.0101,0.0298,0.0323,0.0422,0.0418,0.0378,0.0349,0.0372,0.0359,0.047,0.0469,0.0469,0.0468,0,-0.0512,-0.0551,-0.0598,-0.066,-0.0728,-0.077,-0.08,-0.0781,-0.0784,-0.0731,-0.0681,-0.0494,-0.0389,-0.0109,0.0097,0.0291,0.0328,0.0354,0.0354,0.0348,0.0272,0.0218,0.0343,0,0,0,0,0,-0.0537,-0.0571,-0.0632,-0.0696,-0.0755,-0.0789,-0.0824,-0.0835,-0.0818,-0.0726,-0.0699,-0.0498,-0.0206,-0.0098,0.0112,0.0125,0.0345,0.037,0.037,0.0512,0.0503,0.0434,0,0,0,0,0,0,-0.0558,-0.0612,-0.0629,-0.0695,-0.0741,-0.0803,-0.0823,-0.0817,-0.0752,-0.071,-0.0542,-0.0468,-0.0172,-0.031,0.0111,0.0164,0.0185,0.0506,0.051,0.0517,0.0509,0.0502,0.0428,0,0,0,0,0]}]]